Location: Baia Mare
(47.6567°N, 23.5850°E)
Time: 12:44:25
(UTC+03:00)

ISS - Pass Details

Date: 16 July 2018
Orbit: 402 x 408 km, 51.6° (Epoch: 21 July)

Event Time Altitude Azimuth Distance (km) Brightness Sun altitude
Exits shadow 01:59:22 59° 307° (NW) 475 -3.5 -20.7°
Maximum altitude 01:59:40 64° 341° (NNW) 456 -3.5 -20.6°
Drops below altitude 10° 02:02:57 10° 64° (ENE) 1,472 -0.6 -20.6°
Sets 02:05:04 0° 68° (ENE) 2,335 0.5 -20.5°
